星链-11101 [DTC] (STARLINK-11101 [DTC] )

导读 | 星芒AI

STARLINK-11101 [DTC] 是 SpaceX Starlink 项目中的一颗低轨通信卫星,属于第 11 批发射任务(v1.0 阶段)。该卫星部署在约 550 公里的轨道高度,旨在为全球用户提供高速互联网服务。它采用先进的相控阵天线和激光通信技术,以提高连接速度与稳定性。该卫星由 SpaceX 设计和制造,是其构建全球卫星互联网网络的重要组成部分。

基本信息
目录编号:
59715
目录名称:
STARLINK-11101
国际标识:
2024-088H
轨道中心:
EARTH
卫星名称:
星链-11101 [DTC]
卫星全名:
星链-11101 [DTC] (STARLINK-11101 [DTC] )
卫星状态:
在轨 (已飞行537 天)
发射日期:
2024-05-10 UTC
国别 :
美国 (US)
星等 :
--
轨道信息
数据来源 国际轨道数据
星历时间: 2025-10-28T11:09:04+0800
1天前
查看轨道信息
半长轴: 6737.872km
偏心率: 0.000121
轨道倾角: 53.158°
近地点辐角 80.923°
升交点赤经 259.645°
平近点角 279.192°
近地点: 358.921km
远地点: 360.553km
周期: 91.737分钟
每日圈数: 15.697072
详细信息
固有亮度:
5
最大亮度:
0.6
卫星平台:
Starlink v2.0 mini
覆盖范围:
全球
运营商:
太空探索技术公司
运营商所在国:
美国
制造商(研发单位):
太空探索技术公司
制造商所在国:
美国
使用方式:
暂无
卫星简介
星链(Starlink)计划是由太空探索技术公司(SpaceX)提出的一个巨型低轨卫星互联网星座项目,计划在2019年至2024年间在太空搭建由约1.2万颗卫星组成的“星链”网络,其中1584颗将部署在地球上空550千米处的近地轨道,并从2020年开始工作。该卫星仍在工作。
2D轨道图
3D轨道图
轨道高度分析图
轨道倾角分析图
轨道综合分析图
查看轨道综合分析图